Regional Weather Roundup
Issued by NWS San Angelo, TX

Home | Current Version | Previous Version | Text Only | Print | Product List | Glossary On
Versions: 1 2 3 4 5 6 7 8 9 10 11 12 13 14 15 16 17 18 19 20 21 22 23 24 25 26 27 28 29 30 31 32 33 34 35 36 37 38 39 40 41 42 43 44 45 46 47 48 49 50
000
ASUS44 KSJT 021402
RWRSJT
WEST CENTRAL TEXAS REGIONAL WEATHER ROUNDUP
NATIONAL WEATHER SERVICE SAN ANGELO TX
900 AM CDT WED SEP 02 2015

NOTE: "FAIR" INDICATES FEW OR NO CLOUDS BELOW 12,000 FEET WITH NO
SIGNIFICANT WEATHER AND/OR OBSTRUCTIONS TO VISIBILITY.

TXZ049-054-064>066-071>073-076>078-098-099-113-114-127-128-139-140-
154-155-168>170-021500
...LOCATIONS ACROSS WEST CENTRAL TEXAS...

CITY           SKY/WX    TMP DP  RH WIND       PRES   REMARKS
SAN ANGELO     MOSUNNY   74  66  76 S8        30.09R
ABILENE        SUNNY     76  66  71 S10       30.09R
DYESS AFB      SUNNY     77  67  70 S10       30.07R
JUNCTION       CLOUDY    73  66  78 VRB6      30.10R
SWEETWATER     NOT AVBL
BROWNWOOD      NOT AVBL
COLEMAN        SUNNY     75  67  76 S5        30.10R
SONORA         NOT AVBL
OZONA          NOT AVBL
BRADY          NOT AVBL
$$

TEXAS PANHANDLE/OKLAHOMA PANHANDLE

CITY           SKY/WX    TMP DP  RH WIND       PRES   REMARKS
AMARILLO       CLOUDY    75  53  46 SW14      30.10R
BORGER         CLOUDY    75  56  51 S8        30.07S
CANADIAN       PTSUNNY   74  61  64 S8        30.04S
DALHART        MOSUNNY   72  59  63 SW6       30.10S
DUMAS          PTSUNNY   72  54  53 S9        30.08S
GUYMON         NOT AVBL
HEREFORD       NOT AVBL
PAMPA          NOT AVBL
PERRYTON       NOT AVBL
$$

SOUTHERN PANHANDLE/SOUTH PLAINS/ROLLING PLAINS

CITY           SKY/WX    TMP DP  RH WIND       PRES   REMARKS
LUBBOCK        MOSUNNY   70  55  59 S10       30.12R
SNYDER         NOT AVBL
CHILDRESS      SUNNY     75  62  64 S12       30.05R
SEMINOLE       SUNNY     70  56  61 S6        30.14R
$$

PERMIAN BASIN

CITY           SKY/WX    TMP DP  RH WIND       PRES   REMARKS
MIDLAND        SUNNY     72  62  71 S10       30.11R
ODESSA         SUNNY     73  63  70 S10       30.12R
WINK           SUNNY     73  62  68 SE10      30.08R
$$

FAR WEST/SOUTHWEST MOUNTAINS/TRANS PECOS

CITY           SKY/WX    TMP DP  RH WIND       PRES   REMARKS
ALPINE         SUNNY     71  55  55 CALM      30.22R
DRYDEN           N/A     75  68  78 MISG      30.08R
EL PASO        MOSUNNY   75  48  38 CALM      30.10R
FORT STOCKTON  SUNNY     72  63  73 SE15G23   30.09R
GUADALUPE PASS SUNNY     75  51  43 NE5       30.24R
MARFA          MOSUNNY   66  54  63 CALM      30.20R
PECOS          NOT AVBL
$$

DALLAS/FORT WORTH METROPLEX

CITY           SKY/WX    TMP DP  RH WIND       PRES   REMARKS
DFW AIRPORT    MOSUNNY   78  68  71 SW10      30.07R
FTW MEACHAM    SUNNY     78  69  73 S10       30.07R
DAL-EXECUTIVE  SUNNY     75  68  78 VRB6      30.08R
GRAND PRAIRIE  SUNNY     73  70  88 S9        30.10R
ADDISON        SUNNY     77  68  73 S6        30.08S
MESQUITE       SUNNY     73  70  88 S7        30.09R
LANCASTER      SUNNY     75  67  77 S6        30.09R
$$

NORTH CENTRAL TEXAS

CITY           SKY/WX    TMP DP  RH WIND       PRES   REMARKS
SHRMAN/DENISON SUNNY     78  70  76 S8        30.09S
GAINESVILLE    NOT AVBL
BRIDGEPORT     SUNNY     76  68  78 S6        30.09S
DENTON         SUNNY     77  68  73 S9        30.08R
WAXAHACHIE     SUNNY     74  70  88 S6        30.10R
GRANBURY       NOT AVBL
$$

WESTERN NORTH TEXAS

CITY           SKY/WX    TMP DP  RH WIND       PRES   REMARKS
WICHITA FALLS  SUNNY     77  66  68 S12       30.05R
VERNON         SUNNY     77  62  59 S9        30.05S
BRECKENRIDGE   NOT AVBL
COMANCHE       SUNNY     73  68  85 SE5       30.09S
$$

CENTRAL AND SOUTH CENTRAL TEXAS

CITY           SKY/WX    TMP DP  RH WIND       PRES   REMARKS
AUSTIN/BERGSTM CLOUDY    72  71  97 E5        30.06S FOG
WACO           PTSUNNY   77  70  79 SW7       30.07S
HILLSBORO      NOT AVBL
TEMPLE         PTSUNNY   73  66  78 S5        30.08R
KILLEEN-GRAY   MOSUNNY   74  69  82 SE5       30.08R
FORT HOOD      SUNNY     74  70  87 SE6       30.07R
GEORGETOWN     PTSUNNY   73  70  88 CALM      30.09R
LAGO VISTA     CLOUDY    73  69  88 E3        30.10R
SAN MARCOS     PTSUNNY   72  70  94 NE5       30.08R
NEW BRAUNFELS  PTSUNNY   75  70  84 NE6       30.05R
RANDOLPH AFB   PTSUNNY   75  72  88 E5        30.06R
SAN ANTONIO    PTSUNNY   76  70  82 E6        30.06S
STINSON        PTSUNNY   77  70  79 E7        30.03S
PLEASANTON     NOT AVBL
LA GRANGE      NOT AVBL
GIDDINGS       NOT AVBL
$$

EAST TEXAS

CITY           SKY/WX    TMP DP  RH WIND       PRES   REMARKS
PARIS          SUNNY     75  64  69 S6        30.10S
CLARKSVILLE    NOT AVBL
TYLER          SUNNY     77  68  73 CALM      30.10R
LONGVIEW       SUNNY     79  72  79 CALM      30.08S
PALESTINE      SUNNY     76  71  85 CALM      30.10R
NACOGDOCHES    MOSUNNY   75  72  88 E6        30.08S
$$

TEXAS HILL COUNTRY AND EDWARDS PLATEAU

CITY           SKY/WX    TMP DP  RH WIND       PRES   REMARKS
LLANO          NOT AVBL
HORSESHOE BAY  FAIR      74  69  81 SE3       30.09R
KERRVILLE      MOSUNNY   74  70  87 S5        30.09R
FREDERICKSBRG  NOT AVBL
ROCKSPRINGS    CLOUDY    72  68  88 S7        30.13R
HONDO          CLOUDY    76  71  85 E3        30.07S
UVALDE         NOT AVBL
DEL RIO        CLOUDY    78  70  76 E6        30.03R
$$

SOUTHEAST TEXAS

CITY           SKY/WX    TMP DP  RH WIND       PRES   REMARKS
COLLEGE STN    SUNNY     77  71  82 E5        30.06S
CALDWELL       NOT AVBL
CROCKETT       SUNNY     75 N/A N/A SE5       30.10S
BRENHAM        NOT AVBL
HUNTSVILLE     SUNNY     77  71  82 VRB5      30.07S
CONROE         SUNNY     76  70  82 VRB5      30.06S
HOUSTON BUSH   MOSUNNY   77  71  82 SE3       30.05R
HOUSTON HOBBY  MOSUNNY   75  72  90 CALM      30.04R
PERLAND        MOSUNNY   76  72  87 SE3       30.06R
WHARTON        NOT AVBL
$$

THE UPPER TEXAS COAST

CITY           SKY/WX    TMP DP  RH WIND       PRES   REMARKS
ORANGE         PTSUNNY  N/A N/A N/A CALM      30.07R
PORT ARTHUR    MOSUNNY   79  75  87 NE7       30.04S
GALVESTON      RAIN      75  73  93 N6        30.06R FOG
ANGLETON       PTSUNNY   74  72  93 NE3       30.04R
BAY CITY       CLOUDY    74  74 100 E5        30.03F
$$

TEXAS COASTAL BEND, RIO GRANDE PLAINS DEEP SOUTH TEXAS

CITY           SKY/WX    TMP DP  RH WIND       PRES   REMARKS
VICTORIA       PTSUNNY   74  73  97 E8        30.03R
BEEVILLE       FAIR      75  73  93 E6        30.02S
ROCKPORT       SUNNY     81  75  82 NE6       30.00R
PORT ARANSAS   RAIN      80  76  89 CALM      30.00R
PORT LAVACA    DRIZZLE   73  73  98 N10       30.03F
CORPUS CHRISTI MOSUNNY   80  75  84 NE8       30.00R
KINGSVILLE NAS MOSUNNY   77  77 100 NE6       30.01R
COTULLA        PTSUNNY   78  72  81 E7        30.03R
LAREDO         PTSUNNY   78  74  87 E8        30.03R
BROWNSVILLE    SUNNY     81  76  84 SE6       29.99R
PORT ISABEL    SUNNY     84  77  79 S7        29.98R
HEBBRONVILLE   NOT AVBL
MCALLEN        PTSUNNY   84  77  79 E6        29.99R
WESLACO        NOT AVBL
FALFURRIAS     SUNNY     79  75  87 NE3       30.00R
EDINBURG       SUNNY     80  76  89 SE3       29.99S
$$


USA.gov is the U.S. government's official web portal to all federal, state and local government web resources and services.